Regional Weather Roundup
Issued by NWS

Home | Current Version | Previous Version | Graphics & Text | Print | Product List | Glossary On
Versions: 1 2 3 4 5 6 7 8 9 10 11 12 13 14 15 16 17 18 19 20 21 22 23 24 25 26 27 28 29 30 31 32 33 34 35 36 37 38 39 40 41 42 43 44 45 46 47 48 49 50
647
ASUS45 KBOI 011410
RWRID

IDAHO REGIONAL WEATHER ROUNDUP
NATIONAL WEATHER SERVICE BOISE ID
800 AM MDT SUN MAY 01 2016

NOTE: "FAIR" INDICATES FEW OR NO CLOUDS BELOW 12000 FEET
WITH NO SIGNIFICANT WEATHER AND/OR OBSTRUCTIONS TO VISIBILITY

IDZ012-014-011500-
SOUTHWEST IDAHO


CITY           SKY/WX    TMP DP  RH WIND       PRES   REMARKS
BOISE          SUNNY     45  37  73 CALM      30.15R
CALDWELL       SUNNY     42  38  85 CALM      30.16R
MOUNTAIN HOME  MOSUNNY   40  37  87 VRB2      30.15R
$$

IDZ016-017-011500-
SOUTHCENTRAL IDAHO


CITY           SKY/WX    TMP DP  RH WIND       PRES   REMARKS
BURLEY         PTSUNNY   44  37  76 E8        30.15R
JEROME         PTSUNNY   45  38  76 NE20      30.14R
TWIN FALLS     PTSUNNY   43  38  82 E10       30.14R
$$

IDZ019>023-011500-
SOUTHEAST IDAHO


CITY           SKY/WX    TMP DP  RH WIND       PRES   REMARKS
IDAHO FALLS    SUNNY     38  33  82 N3        30.23R
POCATELLO      CLOUDY    44  32  62 E5        30.20R
REXBURG        SUNNY     40  27  59 NE8       30.22R WCI  34
$$

IDZ006-010-011-018-031-032-011500-
CENTRAL IDAHO MOUNTAINS


CITY           SKY/WX    TMP DP  RH WIND       PRES   REMARKS
MCCALL         SUNNY     36  31  82 CALM      30.17R
HAILEY         MOSUNNY   39  32  75 NW5       30.19R
STANLEY          N/A     30  26  85 E3        30.24R
SALMON         SUNNY     39  34  81 CALM      30.26S
CHALLIS        SUNNY     39  28  64 S3        30.24R
$$

IDZ002-004-006-007-026-011500-
NORTHERN IDAHO


CITY           SKY/WX    TMP DP  RH WIND       PRES   REMARKS
LEWISTON         N/A     44  43  96 S3        30.23R FOG
LOWELL           N/A     43  40  89 CALM      30.28R
COEUR D`ALENE  SUNNY     45  39  81 NE7       30.25S
MULLAN PASS    SUNNY     39  29  67 E5        30.27S
$$




USA.gov is the U.S. government's official web portal to all federal, state and local government web resources and services.